OBJECT D, 61241

Orbit data source: Space-Track

You're viewing an Uncataloged Satellite

Recently launched and/or uncataloged satellites may have evolving metadata. Metadata may include but not limited to: Owner, Maufacturer, Bus, Motor, and Mission.

OBJECT D, 61241 is a satellite owned by Yunyao yuhang (CN) in SSO that was launched on Tue, 24 Sep 2024 UTC via a LIJIAN-1 launch vehicle from the Jiuquan Satellite Launch Center, China (JSC). Unknown objects in Earth's orbit typically refer to objects detected orbiting the Earth but have not yet been identified or cataloged. These objects could be anything from previously untracked satellites, spent rocket stages, debris from satellite collisions, or even natural meteoroids temporarily captured by Earth's gravity.

Loading next visibility...
OBJECT D details
Identifier
61241, 2024-174D
Orbit
SSO
Last TLE update10 hours ago
Origin
Flag of CNYunyao yuhang (CN / PRC)
ManufacturerYunyao yuhang
MissionOperational spacecraft
Bus & MotorYY-1, Unknown motor
Mass~50 kg wet, ~50 kg dry
Launch date (UTC)
2024-09-24 (3 months ago)
Launch vehicle
LIJIAN-1
Launch site
Jiuquan Satellite Launch Center, China (JSC)
Object typeUnknown
Shape & HBRUnknown
Radar Cross SectionMedium (>0.1 m² and <1 m²)

Expand to show TLE details & history

TLE from 10 hours ago
0 OBJECT D
1 61241U 24174D   24356.13864204  .00010500  00000-0  50930-3 0  9996
2 61241  97.4501   0.0001 0014682 348.4130  11.6764 15.18592613 13186
Epoch: 2024-12-21T03:19Z
Definitive object data (Epoch: 2024-12-21T03:19:38.672Z)
Latitude-0.00003°
Longitude-140.10513°
Altitude503.275 km
Speed7.618 km/s
True Right ascension00h 00m 00s
True Declination0° 00' 00"
Sunlit
Object was in daylight at TLE epoch
Visualization TLE readout
Latitude55.26156°
Longitude-150.51498°
Altitude515.617 km
Speed7.613 km/s
Apparent Right ascension23h 44m 30s
Apparent Declination10° 08' 01"
Sunlit
Object is in daylight
Visualization observer readout
Local Sidereal Time12:05:30
Azimuth6.725° NNE
Elevation-39.714°
Doppler factor1
Orbital elements
Apogee altitude517.172 km
Perigee altitude496.954 km
Semi-major axis6,885.2 km
Eccentricity0.0014682
Inclination97.4501°
RAAN0.0001°
Arg. of periapsis348.413°
True anomaly11.71051°
Mean anomaly11.6764°
Eccentric anomaly11.69345°
Mean motion3.79899 °/min
BSTAR0.0005093
Orbital period94.76 mins
Loading maneuver chart data...
Loading historical data...
Loading historical data...
Loading historical data...
Loading historical data...
Loading historical data...
Loading historical data...
Loading historical data...

OBJECT D Visibility forecast

Observer location: undefined°, undefined

Span
Click to sort rows by Start time (UTC) header in descending order
Start Az.
Max El. time (UTC)
Max El. Az.
Max El.
End time (UTC)
End Az.
6 mins2024-12-21 13:22:36.772Z11.315° NNE2024-12-21 13:25:36.772Z347.471° N44.863°2024-12-21 13:28:36.772Z194.065° SSW
4 mins2024-12-22 00:02:36.772Z117.685° SE2024-12-22 00:04:36.772Z53.912° ENE28.466°2024-12-22 00:06:36.772Z13.399° NNE
|